Regional Weather Roundup
Issued by NWS

Home | Current Version | Previous Version | Graphics & Text | Print | Product List | Glossary On
Versions: 1 2 3 4 5 6 7 8 9 10 11 12 13 14 15 16 17 18 19 20 21 22 23 24 25 26 27 28
000
ASUS45 KTFX 281210
RWRMT
MONTANA REGIONAL WEATHER ROUNDUP
NATIONAL WEATHER SERVICE GREAT FALLS MT
600 AM MDT WED JUN 28 2017

NOTE: "FAIR" INDICATES FEW OR NO CLOUDS BELOW 12000 FEET WITH NO
SIGNIFICANT WEATHER AND/OR OBSTRUCTIONS TO VISIBILITY.

MTZ001>007-043-281300-
WEST OF THE DIVIDE

CITY           SKY/WX    TMP DP  RH WIND       PRES   REMARKS
KALISPELL      MOCLDY    45  43  93 CALM      29.78S
MISSOULA       CLEAR     50  41  71 CALM      29.84R
BUTTE          CLOUDY    45  42  89 SE5       29.93R
MULLAN PASS    CLEAR     48  33  56 NW5       29.94R
ANACONDA         N/A     52  41  66 SW3       29.90R
DEER LODGE       N/A     48  45  87 CALM      29.91R
EUREKA           N/A     45  39  81 CALM      29.78R
HAMILTON         N/A     57  46  67 SW3       29.86R
$$

MTZ008-052>055-281300-
SOUTHWEST MONTANA

CITY           SKY/WX    TMP DP  RH WIND       PRES   REMARKS
BOZEMAN        PTCLDY    50  45  83 S6        29.88R
DILLON         CLEAR     49  42  77 SW9       29.91R
W YELLOWSTONE  CLOUDY    45  45 100 CALM      30.01S FOG
ENNIS          CLEAR     52  43  71 SE7       29.96F
THREE FORKS      N/A     50  48  92 CALM      29.88R
$$

MTZ009-010-012-014-046-048-049-054-281300-
EAST SLOPES AND CENTRAL MONTANA

CITY           SKY/WX    TMP DP  RH WIND       PRES   REMARKS
CUT BANK       CLOUDY    49  40  71 NW8       29.76S
GREAT FALLS    PTCLDY    50  38  63 S9        29.78S
MALMSTROM AFB  PTCLDY    53  41  63 SW12      29.77S
HELENA         PTCLDY    57  44  62 CALM      29.84R
CHOTEAU          N/A     54  36  50 CALM      29.79
$$

MTZ011-013-016-021-045-047-050-051-281300-
NORTH CENTRAL MONTANA

CITY           SKY/WX    TMP DP  RH WIND       PRES   REMARKS
HAVRE          CLOUDY    52  45  77 CALM      29.70S
LEWISTOWN      PTCLDY    50  45  83 CALM      29.79S
N BAR RANCH      N/A     48  43  81 NW5       29.83R
CHINOOK          N/A     55  46  71 E7        29.70S
FORT BENTON      N/A     55  48  76 MISG      29.75S
$$

MTZ017>020-022>027-061-062-281300-
NORTHEAST MONTANA

CITY           SKY/WX    TMP DP  RH WIND       PRES   REMARKS
GLASGOW        CLEAR     52  37  56 SE8       29.74F
JORDAN           N/A     51  50  96 CALM      29.75S
SIDNEY         CLEAR     52  43  71 NW5       29.76R
WOLF POINT     CLEAR     47  42  83 S5        29.76R
MALTA          CLEAR     50  45  81 E6        29.72F
PLENTYWOOD       N/A     48  41  76 CALM      29.75R
POPLAR           N/A     50  41  71 CALM      29.77R
$$

MTZ028>42-056>058-281300-
SOUTHCENTRAL AND SOUTHEAST MONTANA

CITY           SKY/WX    TMP DP  RH WIND       PRES   REMARKS
BAKER          CLEAR     51  48  89 CALM      29.80R
BILLINGS       MOCLDY    59  46  62 SW9       29.79S
LIVINGSTON     PTCLDY    59  45  59 SW16      29.85S
MILES CITY     CLEAR     54  52  93 SE7       29.77R
BIG TIMBER     CLEAR     57  45  62 W15       29.87S
LAUREL           N/A     51  42  71 CALM      29.81R
ROUNDUP          N/A     56  45  66 S8        29.72S
$$

REGIONAL REPORTS...DAKOTAS

CITY           SKY/WX    TMP DP  RH WIND       PRES   REMARKS
WILLISTON      PTCLDY    52  41  66 NW3       29.74R
MINOT          PTCLDY    61  51  70 W17       29.62R
DICKINSON      PTCLDY    54  52  93 NW10      29.72R
BEACH            N/A     50  50 100 W6        29.81R
CROSBY           N/A     50  45  81 NW9       29.71R
TIOGA            N/A     52  46  82 N8        29.73S
WATFORD CITY     N/A     50  45  81 SW5       29.74R
BISMARCK       CLOUDY    63  60  90 NW12      29.61S
GRAND FORKS    HVY RAIN  61  61 100 N10       29.51S FOG
FARGO          CLOUDY    69  63  81 SE18G25   29.47F
BUFFALO SD       N/A     55  52  89 NW10      29.73R
RAPID CITY     CLEAR     58  50  75 NW10      29.79R
$$

REGIONAL REPORTS...WYOMING/IDAHO/WASHINGTON

CITY           SKY/WX    TMP DP  RH WIND       PRES   REMARKS
GILLETTE       CLEAR     51  49  92 S6        29.86R
SHERIDAN       CLEAR     49  44  83 S3        29.82F
BUFFALO WY     CLOUDY    52  41  66 W3        29.88F
CODY           CLOUDY    55  41  59 CALM      29.90R
YELLOWSTONE LA   N/A     36  36 100 CALM      30.07S
IDAHO FALLS    CLOUDY    55  51  86 S3        29.94F
SALMON         CLOUDY    48  46  93 NE3       29.91S
BOISE          PTCLDY    64  48  56 SW7       29.84R
SPOKANE        PTCLDY    55  46  71 S8        29.82R
$$

REGIONAL REPORTS...ALBERTA

CITY           SKY/WX    TMP DP  RH WIND       PRES   REMARKS
EDMONTON       LGT RAIN  54  48  82 W12G21    29.59S
CALGARY        PTCLDY    48  43  81 S6        29.72F
LETHBRIDGE     PTCLDY    45  41  87 W8        29.75S
MEDICINE HAT   CLEAR     54  43  66 NE9       29.70S
WATERTON GATE    N/A     41  39  93 N2          N/A
CARDSTON         N/A     46  41  81 SW7         N/A
MILK RIVER       N/A     48  43  81 W9          N/A
$$

REGIONAL REPORTS...SASKATCHEWAN

CITY           SKY/WX    TMP DP  RH WIND       PRES   REMARKS
SWIFT CURRENT  MOCLDY    50  43  76 S6        29.73S
REGINA         PTCLDY    45  43  93 W7        29.70R
SASKATOON      PTCLDY    50  46  87 SW9       29.69S
CYPRESS HILLS    N/A     52  32  46 E8          N/A
VAL MARIE        N/A     48  41  76 NE6         N/A
ROCKGLEN         N/A     52  39  62 N7          N/A
$$




USA.gov is the U.S. government's official web portal to all federal, state and local government web resources and services.